Location: Bannatyne
(13.0833°N, 59.5333°W)
Time: 09:17:40
(UTC+00:00)

Tiros 1 - All Passes

Search period start: 25 January 2020 00:00
Search period end: 04 February 2020 00:00
Orbit: 630 x 664 km, 48.4° (Epoch: 24 January)

Date Brightness Start Highest point End Pass type
(mag) Time Alt. Az. Time Alt. Az. Time Alt. Az.
25 Jan - 00:03:51 10° NNW 00:08:03 30° NE 00:12:13 10° ESE visible
25 Jan - 01:46:12 10° WNW 01:50:05 24° SW 01:53:58 10° S night (unlit)
25 Jan - 14:04:15 10° SSW 14:08:50 72° SE 14:13:27 10° NE daylight
25 Jan - 15:49:57 10° WNW 15:51:12 11° NW 15:52:28 10° NNW daylight
26 Jan - 00:29:18 10° NW 00:34:07 89° SW 00:38:55 10° SE visible
26 Jan - 12:49:39 10° S 12:52:54 19° SE 12:56:10 10° E daylight
26 Jan - 14:30:39 10° WSW 14:34:52 34° NW 14:39:06 10° NNE daylight
26 Jan - 23:13:56 10° NNW 23:17:58 27° NE 23:22:00 10° ESE visible
27 Jan - 00:55:58 10° WNW 01:00:02 28° SW 01:04:06 10° S visible
27 Jan - 13:14:15 10° SSW 13:18:48 63° SE 13:23:22 10° NE daylight
27 Jan - 14:59:14 10° WNW 15:01:08 12° NW 15:03:01 10° NNW daylight
27 Jan - 23:39:15 10° NW 23:44:03 81° NE 23:48:51 10° SE visible
28 Jan - 11:59:55 10° SSE 12:02:53 17° SE 12:05:50 10° E daylight
28 Jan - 13:40:31 10° WSW 13:44:48 39° NW 13:49:08 10° NNE daylight
28 Jan - 22:24:01 10° N 22:27:53 24° NE 22:31:45 10° E visible
29 Jan - 00:05:46 10° WNW 00:09:59 31° SW 00:14:13 10° S visible
29 Jan - 12:24:17 10° SSW 12:28:46 55° SE 12:33:17 10° NE daylight
29 Jan - 14:08:43 10° WNW 14:11:03 14° NW 14:13:23 10° NNW daylight
29 Jan - 22:49:13 10° NW 22:53:59 72° NE 22:58:47 10° SE visible
30 Jan - 11:10:16 10° SSE 11:12:51 15° SE 11:15:26 10° E daylight
30 Jan - 12:50:23 10° WSW 12:54:46 44° NW 12:59:10 10° NNE daylight
30 Jan - 21:34:09 10° N 21:37:48 21° NE 21:41:28 10° E daylight
30 Jan - 23:15:35 10° WNW 23:19:56 35° SW 23:24:18 10° SSE visible
31 Jan - 11:34:19 10° SSW 11:38:44 48° SE 11:43:10 10° NE daylight
31 Jan - 13:18:16 10° W 13:20:58 15° NW 13:23:39 10° N daylight
31 Jan - 21:59:11 10° NNW 22:03:56 63° NE 22:08:41 10° SE daylight
31 Jan - 23:44:31 10° WSW 23:45:50 11° SW 23:47:10 10° SW visible
01 Feb - 10:20:42 10° SSE 10:22:49 13° SE 10:24:57 10° E daylight
01 Feb - 12:00:16 10° SW 12:04:43 49° NW 12:09:11 10° NNE daylight
01 Feb - 20:44:18 10° N 20:47:43 19° NE 20:51:09 10° E daylight
01 Feb - 22:25:26 10° WNW 22:29:53 39° SW 22:34:22 10° SSE visible
02 Feb - 10:44:22 10° SSW 10:48:43 42° SE 10:53:04 10° ENE daylight
02 Feb - 12:27:54 10° W 12:30:53 17° NW 12:33:53 10° N daylight
02 Feb - 21:09:11 10° NNW 21:13:52 56° NE 21:18:34 10° SE daylight
02 Feb - 22:53:44 10° WSW 22:55:47 13° SW 22:57:51 10° SSW visible
03 Feb - 09:31:19 10° SE 09:32:47 11° SE 09:34:16 10° ESE visible
03 Feb - 11:10:10 10° SW 11:14:40 56° NW 11:19:12 10° NNE daylight
03 Feb - 19:54:29 10° N 19:57:38 17° NE 20:00:47 10° E daylight
03 Feb - 21:35:17 10° WNW 21:39:50 45° SW 21:44:24 10° SSE daylight
